Le nostre stazioni meteo in Italia

Pubblicità
Il mio iltempo24.it
Pratica Di Mare, Italia (16245): Temperatura & dewpoint: 27.06.2020 12:00:00 - 03.07.2020 12:00:00 (CEST)Pratica Di Mare, Italia (16245): velocità del vento: 27.06.2020 12:00:00 - 03.07.2020 12:00:00 (CEST)Pratica Di Mare, Italia (16245): direzione del vento: 27.06.2020 12:00:00 - 03.07.2020 12:00:00 (CEST)Pratica Di Mare, Italia (16245): reduced air pressure: 27.06.2020 12:00:00 - 03.07.2020 12:00:00 (CEST)Pratica Di Mare, Italia (16245): visibility: 27.06.2020 12:00:00 - 03.07.2020 12:00:00 (CEST)
Data & Tempo tt [°C] td [°C] ff [km/h] ff [kn] dd ppp [hPa] vv [km]
03.07.2020 12:00:00 26,0 22,0 15 8 SO - 10
03.07.2020 11:00:00 25,4 21,9 15 8 SO 1011,0 10
03.07.2020 10:00:00 26,0 23,0 9 5 SO - 10
03.07.2020 09:00:00 24,0 21,0 8 4 O - 10
03.07.2020 08:00:00 23,8 21,3 5 3 NO 1010,9 12
03.07.2020 07:00:00 21,0 19,0 5 3 NE - 10
03.07.2020 06:00:00 20,0 19,0 8 4 NNE - 10
03.07.2020 05:00:00 20,8 19,1 5 3 NNE 1011,1 12
03.07.2020 04:00:00 21,0 19,0 4 2 E - 10
03.07.2020 03:00:00 21,0 19,0 2 1 NE - 10
03.07.2020 02:00:00 21,8 19,9 4 2 NNE 1011,1 12
03.07.2020 01:00:00 22,0 21,0 2 1 NNE - 10
03.07.2020 00:00:00 23,0 20,0 5 3 NNE - 10
02.07.2020 23:00:00 23,4 21,9 5 3 NNO 1010,8 12
02.07.2020 22:00:00 24,0 22,0 8 4 ONO - 10
02.07.2020 21:00:00 25,0 23,0 8 4 ONO - 10
02.07.2020 20:00:00 25,8 23,1 9 5 O 1011,0 15
02.07.2020 19:00:00 26,0 23,0 15 8 O - 10
02.07.2020 18:00:00 26,0 22,0 15 8 O - 10
02.07.2020 17:00:00 26,8 22,2 15 8 O 1011,4 18
02.07.2020 16:00:00 27,0 22,0 15 8 SO - 10
02.07.2020 15:00:00 27,0 22,0 15 8 SO - 10
02.07.2020 14:00:00 27,0 22,6 15 8 SO 1012,0 18
02.07.2020 13:00:00 27,0 23,0 15 8 SSO - 10
02.07.2020 12:00:00 27,0 22,0 13 7 SSO - 10
02.07.2020 11:00:00 26,8 19,9 15 8 SSO 1011,7 18
02.07.2020 10:00:00 27,0 18,0 16 9 SSO - 10
02.07.2020 09:00:00 26,0 19,0 9 5 ESE - 10
02.07.2020 08:00:00 24,4 20,7 9 5 E 1011,5 20
02.07.2020 07:00:00 22,0 20,0 9 5 E - 10
02.07.2020 06:00:00 21,0 18,0 4 2 NNE - 10
02.07.2020 05:00:00 21,8 20,1 4 2 N 1011,6 10
02.07.2020 04:00:00 22,0 21,0 4 2 - - 10
02.07.2020 03:00:00 22,0 20,0 4 2 E - 10
02.07.2020 02:00:00 22,0 20,3 4 2 ENE 1012,4 12
02.07.2020 01:00:00 23,0 21,0 4 2 - - 10
02.07.2020 00:00:00 23,0 21,0 4 2 SE - 10
01.07.2020 23:00:00 23,4 21,7 8 4 S 1012,4 15
01.07.2020 22:00:00 24,0 22,0 8 4 ESE - 10
01.07.2020 21:00:00 25,0 23,0 4 2 SSE - 10
01.07.2020 20:00:00 25,6 23,5 9 5 OSO 1012,5 20
01.07.2020 19:00:00 26,0 24,0 11 6 SO - 10
01.07.2020 18:00:00 27,0 24,0 13 7 OSO - 10
01.07.2020 17:00:00 27,0 23,2 11 6 SSO 1013,4 25
01.07.2020 16:00:00 28,0 24,0 15 8 SO - 10
01.07.2020 15:00:00 27,0 23,0 16 9 SO - 10
01.07.2020 14:00:00 27,4 22,1 16 9 SSO 1013,8 25
01.07.2020 13:00:00 28,0 21,0 15 8 SO - 10
01.07.2020 12:00:00 27,0 20,0 13 7 SO - 10
01.07.2020 11:00:00 27,4 19,5 13 7 SO 1014,3 25
01.07.2020 10:00:00 26,0 19,0 8 4 SO - 10
01.07.2020 09:00:00 26,0 19,0 5 3 OSO - 10
01.07.2020 08:00:00 23,4 19,4 2 1 SE 1014,0 20
01.07.2020 07:00:00 21,0 18,0 4 2 - - 10
01.07.2020 06:00:00 19,0 17,0 5 3 NNE - 10
01.07.2020 05:00:00 20,0 17,2 8 4 NE 1013,8 12
01.07.2020 04:00:00 20,0 18,0 4 2 NNE - 10
01.07.2020 03:00:00 22,0 20,0 4 2 - - 10
01.07.2020 02:00:00 22,4 21,0 8 4 ENE 1014,4 12
01.07.2020 01:00:00 22,0 20,0 9 5 N - 10
01.07.2020 00:00:00 22,0 20,0 5 3 E - 10
30.06.2020 23:00:00 23,2 20,3 5 3 E 1014,2 12
30.06.2020 22:00:00 23,0 21,0 9 5 SE - 10
30.06.2020 21:00:00 24,0 21,0 9 5 S - 10
30.06.2020 20:00:00 24,6 20,5 11 6 S 1014,0 20
30.06.2020 19:00:00 24,0 19,0 9 5 S - 10
30.06.2020 18:00:00 25,0 20,0 11 6 SSO - 10
30.06.2020 17:00:00 25,6 20,6 13 7 S 1014,5 20
30.06.2020 16:00:00 25,0 21,0 15 8 S - 10
30.06.2020 15:00:00 25,0 21,0 18 10 S - 10
30.06.2020 14:00:00 25,2 21,5 16 9 SSO 1014,5 20
30.06.2020 13:00:00 26,0 21,0 22 12 S - 10
30.06.2020 12:00:00 26,0 22,0 18 10 S - 10
30.06.2020 11:00:00 26,0 21,7 22 12 S 1014,1 20
30.06.2020 10:00:00 25,0 20,0 16 9 SSE - 10
30.06.2020 09:00:00 24,0 20,0 13 7 SE - 10
30.06.2020 08:00:00 22,6 20,0 13 7 ESE 1013,6 25
30.06.2020 07:00:00 21,0 18,0 9 5 ESE - 10
30.06.2020 06:00:00 20,0 17,0 9 5 E - 10
30.06.2020 05:00:00 20,2 17,6 9 5 E 1013,5 15
30.06.2020 04:00:00 20,0 18,0 9 5 E - 10
30.06.2020 03:00:00 20,0 18,0 8 4 E - 10
30.06.2020 02:00:00 20,0 18,3 8 4 ENE 1013,9 10
30.06.2020 01:00:00 20,0 18,0 5 3 E - 10
30.06.2020 00:00:00 20,0 18,0 4 2 NE - 10
29.06.2020 23:00:00 20,4 18,7 4 2 NE 1014,7 15
29.06.2020 22:00:00 22,0 20,0 2 1 E - 10
29.06.2020 21:00:00 23,0 21,0 8 4 O - 10
29.06.2020 20:00:00 24,2 20,5 11 6 O 1013,8 20
29.06.2020 19:00:00 25,0 20,0 13 7 O - 10
29.06.2020 18:00:00 25,0 21,0 13 7 OSO - 10
29.06.2020 17:00:00 25,4 20,7 15 8 OSO 1014,0 25
29.06.2020 16:00:00 26,0 20,0 18 10 OSO - 10
29.06.2020 15:00:00 26,0 22,0 16 9 OSO - 10
29.06.2020 14:00:00 25,6 21,7 15 8 OSO 1014,8 25
29.06.2020 13:00:00 26,0 21,0 16 9 OSO - 10
29.06.2020 12:00:00 26,0 20,0 16 9 O - 10
29.06.2020 11:00:00 26,0 18,7 18 10 O 1015,0 25
29.06.2020 10:00:00 25,0 20,0 13 7 O - 10
29.06.2020 09:00:00 25,0 21,0 13 7 ONO - 10
29.06.2020 08:00:00 22,4 20,3 5 3 NO 1014,4 15
29.06.2020 07:00:00 20,0 18,0 5 3 N - 10
29.06.2020 06:00:00 20,0 18,0 5 3 NNE - 10
29.06.2020 05:00:00 20,0 18,1 5 3 N 1014,3 15
29.06.2020 04:00:00 20,0 19,0 0 0 NNE - 10
29.06.2020 03:00:00 19,0 18,0 4 2 SSO - 10
29.06.2020 02:00:00 19,2 17,9 4 2 N 1014,8 15
29.06.2020 01:00:00 19,0 18,0 2 1 NE - 10
29.06.2020 00:00:00 20,0 18,0 2 1 E - 10
28.06.2020 23:00:00 21,8 20,8 2 1 ENE 1014,8 15
28.06.2020 22:00:00 23,0 22,0 8 4 NO - 10
28.06.2020 21:00:00 24,0 22,0 8 4 ONO - 10
28.06.2020 20:00:00 25,6 21,5 11 6 O 1014,6 15
28.06.2020 19:00:00 27,0 22,0 15 8 O - 10
28.06.2020 18:00:00 28,0 20,0 18 10 O - 10
28.06.2020 17:00:00 28,4 17,6 18 10 ONO 1015,0 15
28.06.2020 16:00:00 28,0 19,0 21 11 O - 10
28.06.2020 15:00:00 28,0 18,0 18 10 O - 10
28.06.2020 14:00:00 28,0 17,8 18 10 O 1015,7 15
28.06.2020 13:00:00 28,0 19,0 16 9 O - 10
28.06.2020 12:00:00 27,0 18,0 15 8 O - 10
28.06.2020 11:00:00 27,6 17,5 11 6 OSO 1015,5 15
28.06.2020 10:00:00 27,0 17,0 11 6 SO - 10
28.06.2020 09:00:00 25,0 16,0 4 2 ENE - 10
28.06.2020 08:00:00 22,4 15,7 11 6 NNE 1015,6 20
28.06.2020 07:00:00 19,0 15,0 2 1 OSO - 10
28.06.2020 06:00:00 18,0 14,0 9 5 NNO - 10
28.06.2020 05:00:00 17,8 13,3 9 5 N 1015,1 20
28.06.2020 04:00:00 18,0 14,0 9 5 N - 10
28.06.2020 03:00:00 18,0 14,0 5 3 NNE - 10
28.06.2020 02:00:00 20,4 14,3 5 3 N 1015,5 18
28.06.2020 01:00:00 20,0 14,0 9 5 NNE - 10
28.06.2020 00:00:00 20,0 15,0 8 4 N - 10
27.06.2020 23:00:00 20,8 14,2 8 4 N 1015,4 20
27.06.2020 22:00:00 22,0 15,0 9 5 NNE - 10
27.06.2020 21:00:00 24,0 15,0 8 4 ONO - 10
27.06.2020 20:00:00 25,6 15,6 11 6 ONO 1015,5 20
27.06.2020 19:00:00 27,0 16,0 15 8 O - 10
27.06.2020 18:00:00 27,0 17,0 16 9 O - 10
27.06.2020 17:00:00 27,8 17,0 21 11 O 1016,0 20
27.06.2020 16:00:00 28,0 17,0 18 10 O - 10
27.06.2020 15:00:00 28,0 17,0 16 9 O - 10
27.06.2020 14:00:00 27,4 15,7 16 9 OSO 1016,0 20
27.06.2020 13:00:00 27,0 17,0 13 7 SO - 10
27.06.2020 12:00:00 26,0 19,0 13 7 SO - 10

tt = Temperatura
td = dewpoint
ff = velocità del vento
dd = direzione del vento
ppp = reduced air pressure
vv = visibility

Stazioni seguenti

WeatherPro
AMSI
MeteoEarth